Weather History for KMYL - April, 2014

Change the Weather History Date:

Friday, April 25, 2014

  Actual Average Record
Temperature  
Mean Temperature 37 °F 40 °F  
Max Temperature 41 °F 52 °F 79 °F (1977)
Min Temperature 32 °F 27 °F 18 °F (1932)
Degree Days  
Heating Degree Days 28 25  
Month to date heating degree days 653 724  
Since 1 July heating degree days 7659 8513  
Cooling Degree Days 0 0  
Month to date cooling degree days 0 0  
Year to date cooling degree days 0 0  
Moisture  
Dew Point 33 °F    
Average Humidity 89    
Maximum Humidity 92    
Minimum Humidity 85    
Precipitation  
Precipitation 0.48 in 0.06 in 0.66 in (1975)
Month to date precipitation 2.17 1.61  
Year to date precipitation 13.12 7.28  
Sea Level Pressure  
Sea Level Pressure 29.70 in    
Wind  
Wind Speed 3 mph (NNW)    
Max Wind Speed 9 mph    
Max Gust Speed 12 mph    
Visibility 8 miles    
Events Rain , Snow    
T = Trace of Precipitation, MM = Missing Value Source: NWS Daily Summary

Daily Weather History Graph

Daily Weather History Graph

Search for Another Location

Airport or City:

Trip Planner

Search our weather history database for the weather conditions in past years. The results will help you decide how hot, cold, wet, or windy it might be!

Date:

Astronomy

Apr. 25, 2014 Rise Set
Actual Time 6:43 AM MDT 8:42 PM MDT
Civil Twilight 6:11 AM MDT 9:14 PM MDT
Nautical Twilight 5:32 AM MDT 9:53 PM MDT
Astronomical Twilight 4:50 AM MDT 10:35 PM MDT
Moon 4:44 AM MDT (4/25) 5:00 PM MDT (4/25)
Length of Visible Light 15h 02m
Length of Day
13h 59m
Waning Crescent, 15% of the Moon is Illuminated
Apr 25
Waning Crescent
Apr 29
New
May 6
First Quarter
May 14
Full
May 21
Last Quarter

Hourly Weather History & Observations

Time (MDT) Temp. Windchill Dew Point Humidity Pressure Visibility Wind Dir Wind Speed Gust Speed Precip Events Conditions
12:14 AM 37.0 °F - 35.1 °F 93% 29.85 in 10.0 mi Calm Calm - 0.00 in   Overcast
12:26 AM 37.0 °F - 35.1 °F 93% 29.84 in 10.0 mi Calm Calm - 0.00 in   Overcast
12:51 AM 36.0 °F 32.1 °F 33.1 °F 89% 29.86 in 10.0 mi NNE 4.6 mph - 0.00 in   Overcast
1:00 AM 36.0 °F 31.1 °F 33.1 °F 89% 29.83 in 10.0 mi NNE 5.8 mph - N/A   Overcast
1:14 AM 36.0 °F 32.1 °F 32.0 °F 86% 29.83 in 10.0 mi North 4.6 mph - 0.00 in Rain Light Rain
1:51 AM 35.1 °F 30.1 °F 32.0 °F 89% 29.83 in 10.0 mi NNE 5.8 mph - 0.00 in   Overcast
2:04 AM 36.0 °F 30.3 °F 30.9 °F 82% 29.82 in 10.0 mi NNE 6.9 mph - N/A   Overcast
2:51 AM 35.1 °F 31.0 °F 32.0 °F 89% 29.81 in 10.0 mi NE 4.6 mph - 0.00 in   Overcast
3:51 AM 36.0 °F - 33.1 °F 89% 29.79 in 10.0 mi Calm Calm - N/A   Overcast
4:51 AM 35.1 °F - 32.0 °F 89% 29.79 in 10.0 mi Calm Calm - N/A   Overcast
5:06 AM 35.1 °F - 32.0 °F 89% 29.76 in 10.0 mi Calm Calm - N/A   Overcast
5:26 AM 35.1 °F - 32.0 °F 89% 29.74 in 10.0 mi Calm Calm - 0.00 in Rain Light Rain
5:51 AM 35.1 °F - 32.0 °F 89% 29.75 in 10.0 mi Calm Calm - 0.00 in Rain Light Rain
6:10 AM 35.1 °F - 32.0 °F 89% 29.73 in 8.0 mi Calm Calm - 0.00 in Rain Light Rain
6:18 AM 35.1 °F - 32.0 °F 89% 29.73 in 4.0 mi Calm Calm - 0.01 in Rain Light Rain
6:31 AM 34.0 °F - 32.0 °F 92% 29.73 in 4.0 mi Calm Calm - 0.03 in Rain Light Rain
6:51 AM 33.1 °F - 30.9 °F 92% 29.76 in 3.0 mi Calm Calm - 0.06 in Rain Rain
7:08 AM 34.0 °F 28.8 °F 30.9 °F 89% 29.72 in 6.0 mi ESE 5.8 mph - 0.04 in Rain Light Rain
7:51 AM 33.1 °F 27.7 °F 30.9 °F 92% 29.75 in 4.0 mi East 5.8 mph - 0.07 in Snow Light Snow
8:04 AM 34.0 °F 28.8 °F 30.9 °F 89% 29.71 in 6.0 mi ENE 5.8 mph - 0.01 in Snow Light Snow
8:36 AM 33.1 °F 28.7 °F 30.9 °F 92% 29.71 in 1.8 mi NNW 4.6 mph - 0.02 in Snow Light Snow
8:39 AM 33.1 °F 30.0 °F 30.9 °F 92% 29.71 in 1.0 mi NNW 3.5 mph - 0.03 in Snow Light Snow
8:59 AM 33.1 °F - 30.9 °F 92% 29.71 in 0.8 mi Calm Calm - 0.01 in Snow Light Snow
9:11 AM 33.1 °F - 30.9 °F 92% 29.71 in 1.2 mi Calm Calm - 0.03 in Snow Light Snow
9:20 AM 33.1 °F - 30.0 °F 89% 29.72 in 2.5 mi Calm Calm - 0.03 in Snow Light Snow
9:28 AM 33.1 °F - 30.0 °F 89% 29.72 in 1.8 mi Calm Calm - 0.04 in Snow Light Snow
9:35 AM 32.0 °F - 30.9 °F 96% 29.72 in 0.8 mi Calm Calm - 0.05 in Snow Light Snow
9:51 AM 33.1 °F 30.0 °F 30.9 °F 92% 29.75 in 1.0 mi NNE 3.5 mph - 0.07 in Snow Light Snow
10:01 AM 33.8 °F 30.8 °F 30.2 °F 87% 29.71 in 1.5 mi NE 3.5 mph - N/A Snow Light Snow
10:18 AM 33.1 °F 30.0 °F 30.9 °F 92% 29.71 in 2.5 mi ENE 3.5 mph - 0.03 in Snow Light Snow
10:33 AM 33.1 °F 28.7 °F 30.9 °F 92% 29.70 in 5.0 mi ENE 4.6 mph - 0.04 in Snow Light Snow
10:51 AM 35.1 °F 32.2 °F 32.0 °F 89% 29.72 in 10.0 mi NE 3.5 mph - 0.05 in Rain Light Rain
11:15 AM 36.0 °F 33.3 °F 33.1 °F 89% 29.70 in 10.0 mi SW 3.5 mph - 0.00 in   Overcast
11:27 AM 36.0 °F 32.1 °F 34.0 °F 93% 29.69 in 10.0 mi West 4.6 mph - 0.00 in Rain Light Rain
11:35 AM 35.1 °F 31.0 °F 33.1 °F 92% 29.69 in 9.0 mi WSW 4.6 mph - 0.00 in Rain Light Rain
11:42 AM 36.0 °F 33.3 °F 33.1 °F 89% 29.69 in 10.0 mi WSW 3.5 mph - 0.00 in Rain Light Rain
11:51 AM 36.0 °F - 33.1 °F 89% 29.72 in 9.0 mi Calm Calm - 0.00 in Rain Light Rain
12:12 PM 37.0 °F - 34.0 °F 89% 29.69 in 10.0 mi Calm Calm - 0.01 in Rain Light Rain
12:51 PM 39.9 °F 37.8 °F 36.0 °F 86% 29.69 in 10.0 mi Variable 3.5 mph - 0.01 in   Overcast
1:13 PM 39.9 °F 35.1 °F 36.0 °F 86% 29.67 in 10.0 mi North 6.9 mph - N/A   Overcast
1:23 PM 39.9 °F 36.7 °F 35.1 °F 83% 29.67 in 10.0 mi North 4.6 mph - N/A   Overcast
1:38 PM 41.0 °F 39.0 °F 36.0 °F 82% 29.66 in 10.0 mi North 3.5 mph - N/A   Overcast
1:51 PM 39.0 °F 33.4 °F 35.1 °F 86% 29.68 in 9.0 mi NW 8.1 mph - 0.00 in Rain Light Rain
2:33 PM 39.9 °F 36.7 °F 36.0 °F 86% 29.65 in 10.0 mi WNW 4.6 mph - 0.01 in   Overcast
2:42 PM 39.9 °F 34.5 °F 36.0 °F 86% 29.65 in 10.0 mi West 8.1 mph - 0.01 in   Overcast
2:51 PM 39.0 °F 34.8 °F 35.1 °F 86% 29.67 in 10.0 mi WNW 5.8 mph - 0.01 in   Overcast
2:56 PM 39.9 °F 35.8 °F 35.1 °F 83% 29.65 in 10.0 mi WNW 5.8 mph - N/A   Overcast
3:03 PM 39.9 °F 36.7 °F 36.0 °F 86% 29.65 in 10.0 mi NNW 4.6 mph - N/A   Overcast
3:49 PM 39.2 °F 35.9 °F 35.6 °F 87% 29.64 in 7.0 mi Variable 4.6 mph - 0.01 in Rain Light Rain
3:51 PM 39.0 °F 34.8 °F 36.0 °F 89% 29.65 in 6.0 mi WSW 5.8 mph - 0.01 in Rain Light Rain
4:10 PM 39.0 °F - 34.0 °F 82% 29.64 in 7.0 mi Calm Calm - 0.02 in Rain Light Rain
4:51 PM 39.9 °F 37.8 °F 35.1 °F 83% 29.64 in 10.0 mi WNW 3.5 mph - 0.05 in Rain Light Rain
5:16 PM 39.9 °F 37.8 °F 35.1 °F 83% 29.63 in 9.0 mi North 3.5 mph - 0.00 in Rain Light Rain
5:25 PM 39.9 °F 37.8 °F 35.1 °F 83% 29.63 in 10.0 mi NNE 3.5 mph - 0.01 in Rain Light Rain
5:37 PM 41.0 °F 38.0 °F 36.0 °F 82% 29.63 in 10.0 mi NW 4.6 mph - 0.01 in Rain Light Rain
5:51 PM 39.9 °F 37.8 °F 36.0 °F 86% 29.65 in 6.0 mi North 3.5 mph - 0.02 in Rain Light Rain
6:22 PM 39.0 °F 34.0 °F 36.0 °F 89% 29.64 in 9.0 mi NW 6.9 mph - 0.01 in Rain Light Rain
6:33 PM 39.0 °F - 36.0 °F 89% 29.64 in 8.0 mi Calm Calm - 0.01 in Rain Light Rain
6:51 PM 37.9 °F 34.4 °F 35.1 °F 89% 29.67 in 5.0 mi West 4.6 mph - 0.03 in Rain Light Rain
7:51 PM 37.9 °F 35.5 °F 35.1 °F 89% 29.66 in 10.0 mi North 3.5 mph - 0.04 in Rain Light Rain
8:00 PM 37.9 °F - 35.1 °F 89% 29.63 in 10.0 mi Calm Calm - 0.00 in Rain Light Rain
8:15 PM 37.0 °F 33.3 °F 34.0 °F 89% 29.63 in 5.0 mi NW 4.6 mph - 0.00 in Rain Light Rain
8:25 PM 37.0 °F 34.5 °F 34.0 °F 89% 29.64 in 4.0 mi NW 3.5 mph - 0.01 in Rain Light Rain
8:42 PM 37.0 °F - 34.0 °F 89% 29.63 in 10.0 mi Calm Calm - 0.01 in Rain Light Rain
9:08 PM 37.0 °F - 34.0 °F 89% 29.64 in 10.0 mi Calm Calm - N/A   Overcast
9:18 PM 37.0 °F - 34.0 °F 89% 29.64 in 10.0 mi Calm Calm - N/A   Overcast
9:51 PM 37.0 °F - 34.0 °F 89% 29.68 in 10.0 mi Calm Calm - 0.00 in Rain Light Rain
10:37 PM 37.0 °F - 34.0 °F 89% 29.64 in 10.0 mi Calm Calm - 0.00 in   Overcast
10:45 PM 37.0 °F - 34.0 °F 89% 29.64 in 10.0 mi Calm Calm - 0.00 in   Overcast
10:51 PM 36.0 °F 33.3 °F 34.0 °F 93% 29.67 in 10.0 mi WSW 3.5 mph - 0.00 in Rain Light Rain